owner,sensor,date,latitude,longitude,vertical_datum,wind_speed,wind_to_direction,wind_speed_of_gust,qcFlag 
WAVCIS,ioos:station:WAVCIS:CSI06:1,2013-10-01T00:00:00Z,28.8667,-90.4833,10.0,4.319,106.0,,'11111222,11111222,99999999' 
WAVCIS,ioos:station:WAVCIS:CSI06:1,2013-10-01T01:00:00Z,28.8667,-90.4833,10.0,7.32,126.0,,'11111222,11111222,99999999' 
WAVCIS,ioos:station:WAVCIS:CSI06:1,2013-10-01T02:00:00Z,28.8667,-90.4833,10.0,7.66,126.0,,'11111222,11111222,99999999' 
WAVCIS,ioos:station:WAVCIS:CSI06:1,2013-10-01T03:00:00Z,28.8667,-90.4833,10.0,7.06,121.0,,'11111222,11111222,99999999' 
WAVCIS,ioos:station:WAVCIS:CSI06:1,2013-10-01T04:00:00Z,28.8667,-90.4833,10.0,7.89,117.0,,'11111222,11111222,99999999' 
WAVCIS,ioos:station:WAVCIS:CSI06:1,2013-10-01T05:00:00Z,28.8667,-90.4833,10.0,7.77,116.0,,'11111222,11111222,99999999' 
WAVCIS,ioos:station:WAVCIS:CSI06:1,2013-10-01T06:00:00Z,28.8667,-90.4833,10.0,7.27,93.0,,'11111222,11111222,99999999' 
WAVCIS,ioos:station:WAVCIS:CSI06:1,2013-10-01T07:00:00Z,28.8667,-90.4833,10.0,7.65,124.0,,'11111222,11111222,99999999' 
WAVCIS,ioos:station:WAVCIS:CSI06:1,2013-10-01T08:00:00Z,28.8667,-90.4833,10.0,7.37,122.0,,'11111222,11111222,99999999' 
WAVCIS,ioos:station:WAVCIS:CSI06:1,2013-10-01T09:00:00Z,28.8667,-90.4833,10.0,7.79,125.0,,'11111222,11111222,99999999' 
WAVCIS,ioos:station:WAVCIS:CSI06:1,2013-10-01T10:00:00Z,28.8667,-90.4833,10.0,7.06,132.0,,'11111222,11111222,99999999' 
WAVCIS,ioos:station:WAVCIS:CSI06:1,2013-10-01T11:00:00Z,28.8667,-90.4833,10.0,7.19,141.0,,'11111222,11111222,99999999' 
WAVCIS,ioos:station:WAVCIS:CSI06:1,2013-10-01T12:00:00Z,28.8667,-90.4833,10.0,5.685,127.0,,'11111222,11111222,99999999' 
WAVCIS,ioos:station:WAVCIS:CSI06:1,2013-10-01T13:00:00Z,28.8667,-90.4833,10.0,6.503,123.0,,'11111222,11111222,99999999' 
WAVCIS,ioos:station:WAVCIS:CSI06:1,2013-10-01T14:00:00Z,28.8667,-90.4833,10.0,5.135,112.0,,'11111222,11111222,99999999' 
WAVCIS,ioos:station:WAVCIS:CSI06:1,2013-10-01T15:00:00Z,28.8667,-90.4833,10.0,4.354,100.0,,'11111222,11111222,99999999' 
WAVCIS,ioos:station:WAVCIS:CSI06:1,2013-10-01T16:00:00Z,28.8667,-90.4833,10.0,4.892,110.0,,'11111222,11111222,99999999' 
WAVCIS,ioos:station:WAVCIS:CSI06:1,2013-10-01T17:00:00Z,28.8667,-90.4833,10.0,6.364,110.0,,'11111222,11111222,99999999' 
WAVCIS,ioos:station:WAVCIS:CSI06:1,2013-10-01T18:00:00Z,28.8667,-90.4833,10.0,6.82,115.0,,'11111222,11111222,99999999' 
WAVCIS,ioos:station:WAVCIS:CSI06:1,2013-10-01T19:00:00Z,28.8667,-90.4833,10.0,7.68,96.0,,'11111222,11111222,99999999' 
WAVCIS,ioos:station:WAVCIS:CSI06:1,2013-10-01T20:00:00Z,28.8667,-90.4833,10.0,8.78,105.0,,'11111222,11111222,99999999' 
WAVCIS,ioos:station:WAVCIS:CSI06:1,2013-10-01T21:00:00Z,28.8667,-90.4833,10.0,3.988,107.0,,'11111222,11111222,99999999' 
WAVCIS,ioos:station:WAVCIS:CSI06:1,2013-10-01T22:00:00Z,28.8667,-90.4833,10.0,9.27,96.0,,'11111222,11111222,99999999' 
WAVCIS,ioos:station:WAVCIS:CSI06:1,2013-10-01T23:00:00Z,28.8667,-90.4833,10.0,9.89,96.0,,'11111222,11111222,99999999' 
WAVCIS,ioos:station:WAVCIS:CSI06:1,2013-10-02T00:00:00Z,28.8667,-90.4833,10.0,8.32,97.0,,'11111222,11111222,99999999' 
WAVCIS,ioos:station:WAVCIS:CSI06:1,2013-10-02T01:00:00Z,28.8667,-90.4833,10.0,6.319,103.0,,'11111222,11111222,99999999' 
WAVCIS,ioos:station:WAVCIS:CSI06:1,2013-10-02T02:00:00Z,28.8667,-90.4833,10.0,7.59,95.0,,'11111222,11111222,99999999' 
WAVCIS,ioos:station:WAVCIS:CSI06:1,2013-10-02T03:00:00Z,28.8667,-90.4833,10.0,6.175,86.0,,'11111222,11111222,99999999' 
WAVCIS,ioos:station:WAVCIS:CSI06:1,2013-10-02T04:00:00Z,28.8667,-90.4833,10.0,7.76,102.0,,'11111222,11111222,99999999' 
WAVCIS,ioos:station:WAVCIS:CSI06:1,2013-10-02T05:00:00Z,28.8667,-90.4833,10.0,7.81,107.0,,'11111222,11111222,99999999' 
WAVCIS,ioos:station:WAVCIS:CSI06:1,2013-10-02T06:00:00Z,28.8667,-90.4833,10.0,8.24,103.0,,'11111222,11111222,99999999' 
WAVCIS,ioos:station:WAVCIS:CSI06:1,2013-10-02T07:00:00Z,28.8667,-90.4833,10.0,7.65,106.0,,'11111222,11111222,99999999' 
WAVCIS,ioos:station:WAVCIS:CSI06:1,2013-10-02T08:00:00Z,28.8667,-90.4833,10.0,7.48,110.0,,'11111222,11111222,99999999' 
WAVCIS,ioos:station:WAVCIS:CSI06:1,2013-10-02T09:00:00Z,28.8667,-90.4833,10.0,8.24,87.0,,'11111222,11111222,99999999' 
WAVCIS,ioos:station:WAVCIS:CSI06:1,2013-10-02T10:00:00Z,28.8667,-90.4833,10.0,7.44,89.0,,'11111222,11111222,99999999' 
WAVCIS,ioos:station:WAVCIS:CSI06:1,2013-10-02T11:00:00Z,28.8667,-90.4833,10.0,6.657,82.0,,'11111222,11111222,99999999' 
WAVCIS,ioos:station:WAVCIS:CSI06:1,2013-10-02T12:00:00Z,28.8667,-90.4833,10.0,1.97,251.0,,'11111222,11111222,99999999' 
WAVCIS,ioos:station:WAVCIS:CSI06:1,2013-10-02T13:00:00Z,28.8667,-90.4833,10.0,9.12,304.0,,'11111222,11111222,99999999' 
WAVCIS,ioos:station:WAVCIS:CSI06:1,2013-10-02T14:00:00Z,28.8667,-90.4833,10.0,5.465,4.0,,'11111222,11111222,99999999' 
WAVCIS,ioos:station:WAVCIS:CSI06:1,2013-10-02T15:00:00Z,28.8667,-90.4833,10.0,7.7,17.0,,'11111222,11111222,99999999' 
WAVCIS,ioos:station:WAVCIS:CSI06:1,2013-10-02T16:00:00Z,28.8667,-90.4833,10.0,6.044,46.0,,'11111222,11111222,99999999' 
WAVCIS,ioos:station:WAVCIS:CSI06:1,2013-10-02T17:00:00Z,28.8667,-90.4833,10.0,6.497,74.0,,'11111222,11111222,99999999' 
WAVCIS,ioos:station:WAVCIS:CSI06:1,2013-10-02T18:00:00Z,28.8667,-90.4833,10.0,8.15,90.0,,'11111222,11111222,99999999' 
WAVCIS,ioos:station:WAVCIS:CSI06:1,2013-10-02T19:00:00Z,28.8667,-90.4833,10.0,8.93,85.0,,'11111222,11111222,99999999' 
WAVCIS,ioos:station:WAVCIS:CSI06:1,2013-10-02T20:00:00Z,28.8667,-90.4833,10.0,6.168,76.0,,'11111222,11111222,99999999' 
WAVCIS,ioos:station:WAVCIS:CSI06:1,2013-10-02T21:00:00Z,28.8667,-90.4833,10.0,6.485,72.0,,'11111222,11111222,99999999' 
WAVCIS,ioos:station:WAVCIS:CSI06:1,2013-10-02T22:00:00Z,28.8667,-90.4833,10.0,6.307,86.0,,'11111222,11111222,99999999' 
WAVCIS,ioos:station:WAVCIS:CSI06:1,2013-10-02T23:00:00Z,28.8667,-90.4833,10.0,5.338,101.0,,'11111222,11111222,99999999' 
WAVCIS,ioos:station:WAVCIS:CSI06:1,2013-10-03T00:00:00Z,28.8667,-90.4833,10.0,4.949,83.0,,'11111222,11111222,99999999' 
WAVCIS,ioos:station:WAVCIS:CSI06:1,2013-10-03T01:00:00Z,28.8667,-90.4833,10.0,6.187,72.0,,'11111222,11111222,99999999' 
WAVCIS,ioos:station:WAVCIS:CSI06:1,2013-10-03T02:00:00Z,28.8667,-90.4833,10.0,9.18,80.0,,'11111222,11111222,99999999' 
WAVCIS,ioos:station:WAVCIS:CSI06:1,2013-10-03T03:00:00Z,28.8667,-90.4833,10.0,8.13,64.0,,'11111222,11111222,99999999' 
WAVCIS,ioos:station:WAVCIS:CSI06:1,2013-10-03T04:00:00Z,28.8667,-90.4833,10.0,9.7,84.0,,'11111222,11111222,99999999' 
WAVCIS,ioos:station:WAVCIS:CSI06:1,2013-10-03T05:00:00Z,28.8667,-90.4833,10.0,8.74,99.0,,'11111222,11111222,99999999' 
WAVCIS,ioos:station:WAVCIS:CSI06:1,2013-10-03T06:00:00Z,28.8667,-90.4833,10.0,7.98,106.0,,'11111222,11111222,99999999' 
WAVCIS,ioos:station:WAVCIS:CSI06:1,2013-10-03T07:00:00Z,28.8667,-90.4833,10.0,6.771,110.0,,'11111222,11111222,99999999' 
WAVCIS,ioos:station:WAVCIS:CSI06:1,2013-10-03T08:00:00Z,28.8667,-90.4833,10.0,6.123,115.0,,'11111222,11111222,99999999' 
WAVCIS,ioos:station:WAVCIS:CSI06:1,2013-10-03T09:00:00Z,28.8667,-90.4833,10.0,4.501,103.0,,'11111222,11111222,99999999' 
WAVCIS,ioos:station:WAVCIS:CSI06:1,2013-10-03T10:00:00Z,28.8667,-90.4833,10.0,7.09,119.0,,'11111222,11111222,99999999' 
WAVCIS,ioos:station:WAVCIS:CSI06:1,2013-10-03T11:00:00Z,28.8667,-90.4833,10.0,6.741,114.0,,'11111222,11111222,99999999' 
WAVCIS,ioos:station:WAVCIS:CSI06:1,2013-10-03T12:00:00Z,28.8667,-90.4833,10.0,5.94,109.0,,'11111222,11111222,99999999' 
WAVCIS,ioos:station:WAVCIS:CSI06:1,2013-10-03T13:00:00Z,28.8667,-90.4833,10.0,6.31,112.0,,'11111222,11111222,99999999' 
WAVCIS,ioos:station:WAVCIS:CSI06:1,2013-10-03T14:00:00Z,28.8667,-90.4833,10.0,6.893,103.0,,'11111222,11111222,99999999' 
WAVCIS,ioos:station:WAVCIS:CSI06:1,2013-10-03T15:00:00Z,28.8667,-90.4833,10.0,6.662,95.0,,'11111222,11111222,99999999' 
WAVCIS,ioos:station:WAVCIS:CSI06:1,2013-10-03T16:00:00Z,28.8667,-90.4833,10.0,6.968,90.0,,'11111222,11111222,99999999' 
WAVCIS,ioos:station:WAVCIS:CSI06:1,2013-10-03T17:00:00Z,28.8667,-90.4833,10.0,7.33,76.0,,'11111222,11111222,99999999' 
WAVCIS,ioos:station:WAVCIS:CSI06:1,2013-10-03T18:00:00Z,28.8667,-90.4833,10.0,8.43,85.0,,'11111222,11111222,99999999' 
WAVCIS,ioos:station:WAVCIS:CSI06:1,2013-10-03T19:00:00Z,28.8667,-90.4833,10.0,6.766,108.0,,'11111222,11111222,99999999' 
WAVCIS,ioos:station:WAVCIS:CSI06:1,2013-10-03T20:00:00Z,28.8667,-90.4833,10.0,5.846,87.0,,'11111222,11111222,99999999' 
WAVCIS,ioos:station:WAVCIS:CSI06:1,2013-10-03T21:00:00Z,28.8667,-90.4833,10.0,8.27,111.0,,'11111222,11111222,99999999' 
WAVCIS,ioos:station:WAVCIS:CSI06:1,2013-10-03T22:00:00Z,28.8667,-90.4833,10.0,5.481,86.0,,'11111222,11111222,99999999' 
WAVCIS,ioos:station:WAVCIS:CSI06:1,2013-10-03T23:00:00Z,28.8667,-90.4833,10.0,6.18,74.0,,'11111222,11111222,99999999' 
WAVCIS,ioos:station:WAVCIS:CSI06:1,2013-10-04T00:00:00Z,28.8667,-90.4833,10.0,7.97,103.0,,'11111222,11111222,99999999' 
WAVCIS,ioos:station:WAVCIS:CSI06:1,2013-10-04T01:00:00Z,28.8667,-90.4833,10.0,9.71,117.0,,'11111222,11111222,99999999' 
WAVCIS,ioos:station:WAVCIS:CSI06:1,2013-10-04T02:00:00Z,28.8667,-90.4833,10.0,7.37,112.0,,'11111222,11111222,99999999' 
WAVCIS,ioos:station:WAVCIS:CSI06:1,2013-10-04T03:00:00Z,28.8667,-90.4833,10.0,7.44,111.0,,'11111222,11111222,99999999' 
WAVCIS,ioos:station:WAVCIS:CSI06:1,2013-10-04T04:00:00Z,28.8667,-90.4833,10.0,7.34,106.0,,'11111222,11111222,99999999' 
WAVCIS,ioos:station:WAVCIS:CSI06:1,2013-10-04T05:00:00Z,28.8667,-90.4833,10.0,9.04,80.0,,'11111222,11111222,99999999' 
WAVCIS,ioos:station:WAVCIS:CSI06:1,2013-10-04T06:00:00Z,28.8667,-90.4833,10.0,6.589,135.0,,'11111222,11111222,99999999' 
WAVCIS,ioos:station:WAVCIS:CSI06:1,2013-10-04T07:00:00Z,28.8667,-90.4833,10.0,5.73,144.0,,'11111222,11111222,99999999' 
WAVCIS,ioos:station:WAVCIS:CSI06:1,2013-10-04T08:00:00Z,28.8667,-90.4833,10.0,6.504,143.0,,'11111222,11111222,99999999' 
WAVCIS,ioos:station:WAVCIS:CSI06:1,2013-10-04T09:00:00Z,28.8667,-90.4833,10.0,6.807,132.0,,'11111222,11111222,99999999' 
WAVCIS,ioos:station:WAVCIS:CSI06:1,2013-10-04T10:00:00Z,28.8667,-90.4833,10.0,7.48,120.0,,'11111222,11111222,99999999' 
WAVCIS,ioos:station:WAVCIS:CSI06:1,2013-10-04T11:00:00Z,28.8667,-90.4833,10.0,7.74,112.0,,'11111222,11111222,99999999' 
WAVCIS,ioos:station:WAVCIS:CSI06:1,2013-10-04T12:00:00Z,28.8667,-90.4833,10.0,7.99,100.0,,'11111222,11111222,99999999' 
WAVCIS,ioos:station:WAVCIS:CSI06:1,2013-10-04T13:00:00Z,28.8667,-90.4833,10.0,10.69,78.0,,'11111222,11111222,99999999' 
WAVCIS,ioos:station:WAVCIS:CSI06:1,2013-10-04T14:00:00Z,28.8667,-90.4833,10.0,11.0,74.0,,'11111222,11111222,99999999' 
WAVCIS,ioos:station:WAVCIS:CSI06:1,2013-10-04T15:00:00Z,28.8667,-90.4833,10.0,6.981,140.0,,'11111222,11111222,99999999' 
WAVCIS,ioos:station:WAVCIS:CSI06:1,2013-10-04T16:00:00Z,28.8667,-90.4833,10.0,9.55,123.0,,'11111222,11111222,99999999' 
WAVCIS,ioos:station:WAVCIS:CSI06:1,2013-10-04T17:00:00Z,28.8667,-90.4833,10.0,10.93,116.0,,'11111222,11111222,99999999' 
WAVCIS,ioos:station:WAVCIS:CSI06:1,2013-10-04T18:00:00Z,28.8667,-90.4833,10.0,12.81,99.0,,'11111222,11111222,99999999' 
WAVCIS,ioos:station:WAVCIS:CSI06:1,2013-10-04T19:00:00Z,28.8667,-90.4833,10.0,12.69,107.0,,'11111222,11111222,99999999' 
WAVCIS,ioos:station:WAVCIS:CSI06:1,2013-10-04T20:00:00Z,28.8667,-90.4833,10.0,12.88,113.0,,'11111222,11111222,99999999' 
WAVCIS,ioos:station:WAVCIS:CSI06:1,2013-10-04T21:00:00Z,28.8667,-90.4833,10.0,9.04,115.0,,'11111222,11111222,99999999' 
WAVCIS,ioos:station:WAVCIS:CSI06:1,2013-10-04T22:00:00Z,28.8667,-90.4833,10.0,8.86,92.0,,'11111222,11111222,99999999' 
WAVCIS,ioos:station:WAVCIS:CSI06:1,2013-10-04T23:00:00Z,28.8667,-90.4833,10.0,10.48,120.0,,'11111222,11111222,99999999' 
WAVCIS,ioos:station:WAVCIS:CSI06:1,2013-10-05T00:00:00Z,28.8667,-90.4833,10.0,11.32,116.0,,'11111222,11111222,99999999' 
WAVCIS,ioos:station:WAVCIS:CSI06:1,2013-10-05T01:00:00Z,28.8667,-90.4833,10.0,11.85,111.0,,'11111222,11111222,99999999' 
WAVCIS,ioos:station:WAVCIS:CSI06:1,2013-10-05T02:00:00Z,28.8667,-90.4833,10.0,11.38,116.0,,'11111222,11111222,99999999' 
WAVCIS,ioos:station:WAVCIS:CSI06:1,2013-10-05T03:00:00Z,28.8667,-90.4833,10.0,11.99,112.0,,'11111222,11111222,99999999' 
WAVCIS,ioos:station:WAVCIS:CSI06:1,2013-10-05T04:00:00Z,28.8667,-90.4833,10.0,11.99,105.0,,'11111222,11111222,99999999' 
WAVCIS,ioos:station:WAVCIS:CSI06:1,2013-10-05T05:00:00Z,28.8667,-90.4833,10.0,14.8,121.0,,'11111222,11111222,99999999' 
WAVCIS,ioos:station:WAVCIS:CSI06:1,2013-10-05T06:00:00Z,28.8667,-90.4833,10.0,14.12,125.0,,'11111222,11111222,99999999' 
WAVCIS,ioos:station:WAVCIS:CSI06:1,2013-10-05T07:00:00Z,28.8667,-90.4833,10.0,15.01,123.0,,'11111222,11111222,99999999' 
WAVCIS,ioos:station:WAVCIS:CSI06:1,2013-10-05T08:00:00Z,28.8667,-90.4833,10.0,15.59,122.0,,'11111222,11111222,99999999' 
WAVCIS,ioos:station:WAVCIS:CSI06:1,2013-10-05T09:00:00Z,28.8667,-90.4833,10.0,14.51,123.0,,'11111222,11111222,99999999' 
WAVCIS,ioos:station:WAVCIS:CSI06:1,2013-10-05T10:00:00Z,28.8667,-90.4833,10.0,14.08,129.0,,'11111222,11111222,99999999' 
WAVCIS,ioos:station:WAVCIS:CSI06:1,2013-10-05T11:00:00Z,28.8667,-90.4833,10.0,12.63,124.0,,'11111222,11111222,99999999' 
WAVCIS,ioos:station:WAVCIS:CSI06:1,2013-10-05T12:00:00Z,28.8667,-90.4833,10.0,11.4,126.0,,'11111222,11111222,99999999' 
WAVCIS,ioos:station:WAVCIS:CSI06:1,2013-10-05T13:00:00Z,28.8667,-90.4833,10.0,13.58,125.0,,'11111222,11111222,99999999' 
WAVCIS,ioos:station:WAVCIS:CSI06:1,2013-10-05T14:00:00Z,28.8667,-90.4833,10.0,13.57,123.0,,'11111222,11111222,99999999' 
WAVCIS,ioos:station:WAVCIS:CSI06:1,2013-10-05T15:00:00Z,28.8667,-90.4833,10.0,13.93,121.0,,'11111222,11111222,99999999' 
WAVCIS,ioos:station:WAVCIS:CSI06:1,2013-10-05T16:00:00Z,28.8667,-90.4833,10.0,14.51,134.0,,'11111222,11111222,99999999' 
WAVCIS,ioos:station:WAVCIS:CSI06:1,2013-10-05T17:00:00Z,28.8667,-90.4833,10.0,13.13,122.0,,'11111222,11111222,99999999' 
WAVCIS,ioos:station:WAVCIS:CSI06:1,2013-10-05T18:00:00Z,28.8667,-90.4833,10.0,9.15,135.0,,'11111222,11111222,99999999' 
WAVCIS,ioos:station:WAVCIS:CSI06:1,2013-10-05T19:00:00Z,28.8667,-90.4833,10.0,9.22,132.0,,'11111222,11111222,99999999' 
WAVCIS,ioos:station:WAVCIS:CSI06:1,2013-10-05T20:00:00Z,28.8667,-90.4833,10.0,10.35,118.0,,'11111222,11111222,99999999' 
WAVCIS,ioos:station:WAVCIS:CSI06:1,2013-10-05T21:00:00Z,28.8667,-90.4833,10.0,11.38,118.0,,'11111222,11111222,99999999' 
WAVCIS,ioos:station:WAVCIS:CSI06:1,2013-10-05T22:00:00Z,28.8667,-90.4833,10.0,12.46,108.0,,'11111222,11111222,99999999' 
WAVCIS,ioos:station:WAVCIS:CSI06:1,2013-10-05T23:00:00Z,28.8667,-90.4833,10.0,11.43,114.0,,'11111222,11111222,99999999' 
WAVCIS,ioos:station:WAVCIS:CSI06:1,2013-10-06T00:00:00Z,28.8667,-90.4833,10.0,8.04,132.0,,'11111222,11111222,99999999' 
WAVCIS,ioos:station:WAVCIS:CSI06:1,2013-10-06T01:00:00Z,28.8667,-90.4833,10.0,10.38,130.0,,'11111222,11111222,99999999' 
WAVCIS,ioos:station:WAVCIS:CSI06:1,2013-10-06T02:00:00Z,28.8667,-90.4833,10.0,8.73,123.0,,'11111222,11111222,99999999' 
WAVCIS,ioos:station:WAVCIS:CSI06:1,2013-10-06T03:00:00Z,28.8667,-90.4833,10.0,6.076,131.0,,'11111222,11111222,99999999' 
WAVCIS,ioos:station:WAVCIS:CSI06:1,2013-10-06T04:00:00Z,28.8667,-90.4833,10.0,8.12,130.0,,'11111222,11111222,99999999' 
WAVCIS,ioos:station:WAVCIS:CSI06:1,2013-10-06T05:00:00Z,28.8667,-90.4833,10.0,7.74,127.0,,'11111222,11111222,99999999' 
WAVCIS,ioos:station:WAVCIS:CSI06:1,2013-10-06T06:00:00Z,28.8667,-90.4833,10.0,8.23,135.0,,'11111222,11111222,99999999' 
WAVCIS,ioos:station:WAVCIS:CSI06:1,2013-10-06T07:00:00Z,28.8667,-90.4833,10.0,8.34,123.0,,'11111222,11111222,99999999' 
WAVCIS,ioos:station:WAVCIS:CSI06:1,2013-10-06T08:00:00Z,28.8667,-90.4833,10.0,7.21,128.0,,'11111222,11111222,99999999' 
WAVCIS,ioos:station:WAVCIS:CSI06:1,2013-10-06T09:00:00Z,28.8667,-90.4833,10.0,6.443,149.0,,'11111222,11111222,99999999' 
WAVCIS,ioos:station:WAVCIS:CSI06:1,2013-10-06T10:00:00Z,28.8667,-90.4833,10.0,4.497,148.0,,'11111222,11111222,99999999' 
WAVCIS,ioos:station:WAVCIS:CSI06:1,2013-10-06T11:00:00Z,28.8667,-90.4833,10.0,3.761,123.0,,'11111222,11111222,99999999' 
WAVCIS,ioos:station:WAVCIS:CSI06:1,2013-10-06T12:00:00Z,28.8667,-90.4833,10.0,2.212,127.0,,'11111222,11111222,99999999' 
WAVCIS,ioos:station:WAVCIS:CSI06:1,2013-10-06T13:00:00Z,28.8667,-90.4833,10.0,1.843,315.0,,'11111222,11111222,99999999' 
WAVCIS,ioos:station:WAVCIS:CSI06:1,2013-10-06T14:00:00Z,28.8667,-90.4833,10.0,4.058,13.0,,'11111222,11111222,99999999' 
WAVCIS,ioos:station:WAVCIS:CSI06:1,2013-10-06T15:00:00Z,28.8667,-90.4833,10.0,3.829,339.0,,'11111222,11111222,99999999' 
WAVCIS,ioos:station:WAVCIS:CSI06:1,2013-10-06T16:00:00Z,28.8667,-90.4833,10.0,4.057,347.0,,'11111222,11111222,99999999' 
WAVCIS,ioos:station:WAVCIS:CSI06:1,2013-10-06T17:00:00Z,28.8667,-90.4833,10.0,6.636,335.0,,'11111222,11111222,99999999' 
WAVCIS,ioos:station:WAVCIS:CSI06:1,2013-10-06T18:00:00Z,28.8667,-90.4833,10.0,7.1,331.0,,'11111222,11111222,99999999' 
WAVCIS,ioos:station:WAVCIS:CSI06:1,2013-10-06T19:00:00Z,28.8667,-90.4833,10.0,10.15,328.0,,'11111222,11111222,99999999' 
WAVCIS,ioos:station:WAVCIS:CSI06:1,2013-10-06T20:00:00Z,28.8667,-90.4833,10.0,9.29,316.0,,'11111222,11111222,99999999' 
WAVCIS,ioos:station:WAVCIS:CSI06:1,2013-10-06T21:00:00Z,28.8667,-90.4833,10.0,9.43,316.0,,'11111222,11111222,99999999' 
WAVCIS,ioos:station:WAVCIS:CSI06:1,2013-10-06T22:00:00Z,28.8667,-90.4833,10.0,8.16,326.0,,'11111222,11111222,99999999' 
WAVCIS,ioos:station:WAVCIS:CSI06:1,2013-10-06T23:00:00Z,28.8667,-90.4833,10.0,6.575,343.0,,'11111222,11111222,99999999' 
WAVCIS,ioos:station:WAVCIS:CSI06:1,2013-10-07T00:00:00Z,28.8667,-90.4833,10.0,7.64,340.0,,'11111222,11111222,99999999' 
WAVCIS,ioos:station:WAVCIS:CSI06:1,2013-10-07T01:00:00Z,28.8667,-90.4833,10.0,11.69,335.0,,'11111222,11111222,99999999' 
WAVCIS,ioos:station:WAVCIS:CSI06:1,2013-10-07T02:00:00Z,28.8667,-90.4833,10.0,9.49,341.0,,'11111222,11111222,99999999' 
WAVCIS,ioos:station:WAVCIS:CSI06:1,2013-10-07T03:00:00Z,28.8667,-90.4833,10.0,10.01,337.0,,'11111222,11111222,99999999' 
WAVCIS,ioos:station:WAVCIS:CSI06:1,2013-10-07T04:00:00Z,28.8667,-90.4833,10.0,9.19,346.0,,'11111222,11111222,99999999' 
WAVCIS,ioos:station:WAVCIS:CSI06:1,2013-10-07T05:00:00Z,28.8667,-90.4833,10.0,8.79,351.0,,'11111222,11111222,99999999' 
WAVCIS,ioos:station:WAVCIS:CSI06:1,2013-10-07T06:00:00Z,28.8667,-90.4833,10.0,11.45,341.0,,'11111222,11111222,99999999' 
WAVCIS,ioos:station:WAVCIS:CSI06:1,2013-10-07T07:00:00Z,28.8667,-90.4833,10.0,9.58,359.0,,'11111222,11111222,99999999' 
WAVCIS,ioos:station:WAVCIS:CSI06:1,2013-10-07T08:00:00Z,28.8667,-90.4833,10.0,9.76,1.0,,'11111222,11111222,99999999' 
WAVCIS,ioos:station:WAVCIS:CSI06:1,2013-10-07T09:00:00Z,28.8667,-90.4833,10.0,9.62,1.0,,'11111222,11111222,99999999' 
WAVCIS,ioos:station:WAVCIS:CSI06:1,2013-10-07T10:00:00Z,28.8667,-90.4833,10.0,8.8,359.0,,'11111222,11111222,99999999' 
WAVCIS,ioos:station:WAVCIS:CSI06:1,2013-10-07T11:00:00Z,28.8667,-90.4833,10.0,8.14,358.0,,'11111222,11111222,99999999' 
WAVCIS,ioos:station:WAVCIS:CSI06:1,2013-10-07T12:00:00Z,28.8667,-90.4833,10.0,7.99,358.0,,'11111222,11111222,99999999' 
WAVCIS,ioos:station:WAVCIS:CSI06:1,2013-10-07T13:00:00Z,28.8667,-90.4833,10.0,8.34,2.0,,'11111222,11111222,99999999' 
WAVCIS,ioos:station:WAVCIS:CSI06:1,2013-10-07T14:00:00Z,28.8667,-90.4833,10.0,9.57,8.0,,'11111222,11111222,99999999' 
WAVCIS,ioos:station:WAVCIS:CSI06:1,2013-10-07T15:00:00Z,28.8667,-90.4833,10.0,8.75,11.0,,'11111222,11111222,99999999' 
WAVCIS,ioos:station:WAVCIS:CSI06:1,2013-10-07T16:00:00Z,28.8667,-90.4833,10.0,7.07,13.0,,'11111222,11111222,99999999' 
WAVCIS,ioos:station:WAVCIS:CSI06:1,2013-10-07T17:00:00Z,28.8667,-90.4833,10.0,4.892,0.0,,'11111222,11111222,99999999' 
WAVCIS,ioos:station:WAVCIS:CSI06:1,2013-10-07T18:00:00Z,28.8667,-90.4833,10.0,5.417,7.0,,'11111222,11111222,99999999' 
WAVCIS,ioos:station:WAVCIS:CSI06:1,2013-10-07T19:00:00Z,28.8667,-90.4833,10.0,5.474,0.0,,'11111222,11111222,99999999' 
WAVCIS,ioos:station:WAVCIS:CSI06:1,2013-10-07T20:00:00Z,28.8667,-90.4833,10.0,6.065,341.0,,'11111222,11111222,99999999' 
WAVCIS,ioos:station:WAVCIS:CSI06:1,2013-10-07T21:00:00Z,28.8667,-90.4833,10.0,5.576,338.0,,'11111222,11111222,99999999' 
WAVCIS,ioos:station:WAVCIS:CSI06:1,2013-10-07T22:00:00Z,28.8667,-90.4833,10.0,5.288,333.0,,'11111222,11111222,99999999' 
WAVCIS,ioos:station:WAVCIS:CSI06:1,2013-10-07T23:00:00Z,28.8667,-90.4833,10.0,6.95,333.0,,'11111222,11111222,99999999' 
WAVCIS,ioos:station:WAVCIS:CSI06:1,2013-10-08T00:00:00Z,28.8667,-90.4833,10.0,6.856,337.0,,'11111222,11111222,99999999' 
WAVCIS,ioos:station:WAVCIS:CSI06:1,2013-10-08T01:00:00Z,28.8667,-90.4833,10.0,5.615,348.0,,'11111222,11111222,99999999' 
WAVCIS,ioos:station:WAVCIS:CSI06:1,2013-10-08T02:00:00Z,28.8667,-90.4833,10.0,6.146,345.0,,'11111222,11111222,99999999' 
WAVCIS,ioos:station:WAVCIS:CSI06:1,2013-10-08T03:00:00Z,28.8667,-90.4833,10.0,6.462,347.0,,'11111222,11111222,99999999' 
WAVCIS,ioos:station:WAVCIS:CSI06:1,2013-10-08T04:00:00Z,28.8667,-90.4833,10.0,6.491,1.0,,'11111222,11111222,99999999' 
WAVCIS,ioos:station:WAVCIS:CSI06:1,2013-10-08T05:00:00Z,28.8667,-90.4833,10.0,6.976,3.0,,'11111222,11111222,99999999' 
WAVCIS,ioos:station:WAVCIS:CSI06:1,2013-10-08T06:00:00Z,28.8667,-90.4833,10.0,9.14,11.0,,'11111222,11111222,99999999' 
WAVCIS,ioos:station:WAVCIS:CSI06:1,2013-10-08T07:00:00Z,28.8667,-90.4833,10.0,9.66,15.0,,'11111222,11111222,99999999' 
WAVCIS,ioos:station:WAVCIS:CSI06:1,2013-10-08T08:00:00Z,28.8667,-90.4833,10.0,9.02,22.0,,'11111222,11111222,99999999' 
WAVCIS,ioos:station:WAVCIS:CSI06:1,2013-10-08T09:00:00Z,28.8667,-90.4833,10.0,8.54,26.0,,'11111222,11111222,99999999' 
WAVCIS,ioos:station:WAVCIS:CSI06:1,2013-10-08T10:00:00Z,28.8667,-90.4833,10.0,7.49,29.0,,'11111222,11111222,99999999' 
WAVCIS,ioos:station:WAVCIS:CSI06:1,2013-10-08T11:00:00Z,28.8667,-90.4833,10.0,6.895,34.0,,'11111222,11111222,99999999' 
WAVCIS,ioos:station:WAVCIS:CSI06:1,2013-10-08T12:00:00Z,28.8667,-90.4833,10.0,5.719,40.0,,'11111222,11111222,99999999' 
WAVCIS,ioos:station:WAVCIS:CSI06:1,2013-10-08T13:00:00Z,28.8667,-90.4833,10.0,5.065,30.0,,'11111222,11111222,99999999' 
WAVCIS,ioos:station:WAVCIS:CSI06:1,2013-10-08T14:00:00Z,28.8667,-90.4833,10.0,3.85,39.0,,'11111222,11111222,99999999' 
WAVCIS,ioos:station:WAVCIS:CSI06:1,2013-10-08T15:00:00Z,28.8667,-90.4833,10.0,4.247,27.0,,'11111222,11111222,99999999' 
WAVCIS,ioos:station:WAVCIS:CSI06:1,2013-10-08T16:00:00Z,28.8667,-90.4833,10.0,3.858,17.0,,'11111222,11111222,99999999' 
WAVCIS,ioos:station:WAVCIS:CSI06:1,2013-10-08T17:00:00Z,28.8667,-90.4833,10.0,3.223,1.0,,'11111222,11111222,99999999' 
WAVCIS,ioos:station:WAVCIS:CSI06:1,2013-10-08T18:00:00Z,28.8667,-90.4833,10.0,2.431,1.0,,'11111222,11111222,99999999' 
WAVCIS,ioos:station:WAVCIS:CSI06:1,2013-10-08T19:00:00Z,28.8667,-90.4833,10.0,3.297,330.0,,'11111222,11111222,99999999' 
WAVCIS,ioos:station:WAVCIS:CSI06:1,2013-10-08T20:00:00Z,28.8667,-90.4833,10.0,2.744,352.0,,'11111222,11111222,99999999' 
WAVCIS,ioos:station:WAVCIS:CSI06:1,2013-10-08T21:00:00Z,28.8667,-90.4833,10.0,3.081,327.0,,'11111222,11111222,99999999' 
WAVCIS,ioos:station:WAVCIS:CSI06:1,2013-10-08T22:00:00Z,28.8667,-90.4833,10.0,2.78,314.0,,'11111222,11111222,99999999' 
WAVCIS,ioos:station:WAVCIS:CSI06:1,2013-10-08T23:00:00Z,28.8667,-90.4833,10.0,3.555,285.0,,'11111222,11111222,99999999' 
WAVCIS,ioos:station:WAVCIS:CSI06:1,2013-10-09T00:00:00Z,28.8667,-90.4833,10.0,4.19,295.0,,'11111222,11111222,99999999' 
WAVCIS,ioos:station:WAVCIS:CSI06:1,2013-10-09T01:00:00Z,28.8667,-90.4833,10.0,4.124,300.0,,'11111222,11111222,99999999' 
WAVCIS,ioos:station:WAVCIS:CSI06:1,2013-10-09T02:00:00Z,28.8667,-90.4833,10.0,4.329,324.0,,'11111222,11111222,99999999' 
WAVCIS,ioos:station:WAVCIS:CSI06:1,2013-10-09T03:00:00Z,28.8667,-90.4833,10.0,2.862,7.0,,'11111222,11111222,99999999' 
WAVCIS,ioos:station:WAVCIS:CSI06:1,2013-10-09T04:00:00Z,28.8667,-90.4833,10.0,3.073,27.0,,'11111222,11111222,99999999' 
WAVCIS,ioos:station:WAVCIS:CSI06:1,2013-10-09T05:00:00Z,28.8667,-90.4833,10.0,3.986,42.0,,'11111222,11111222,99999999' 